Location: İstanbul
(41.0082°N, 28.9784°E)
Time: 01:22:34
(UTC+03:00)

NOAA 19 - Visible Passes

Search period start: 25 April 2024 00:00
Search period end: 05 May 2024 00:00
Orbit: 838 x 860 km, 99.1° (Epoch: 24 April)

Date Brightness Start Highest point End Pass type
(mag) Time Alt. Az. Time Alt. Az. Time Alt. Az.
25 Apr 5.2 21:22:32 21° SSE 21:26:12 65° ENE 21:31:36 10° N visible
25 Apr 7.5 23:04:30 12° SW 23:07:15 16° W 23:10:36 10° NW visible
26 Apr 5.5 21:10:02 17° SE 21:13:58 50° ENE 21:19:13 10° N visible
26 Apr 7.2 22:52:00 15° SW 22:54:51 21° W 22:58:56 10° NW visible
27 Apr 5.8 20:57:31 14° SE 21:01:45 39° ENE 21:06:47 10° N visible
27 Apr 6.8 22:39:29 17° SW 22:42:27 27° W 22:47:04 10° NW visible
28 Apr 6.1 20:45:01 11° SE 20:49:34 31° ENE 20:54:18 10° N visible
28 Apr 6.4 22:26:59 20° SSW 22:30:05 35° W 22:35:04 10° NNW visible
29 Apr 6.4 20:33:05 10° ESE 20:37:24 25° ENE 20:41:44 10° N visible
29 Apr 6.0 22:14:28 21° SSW 22:17:44 45° W 22:22:58 10° NNW visible
30 Apr 5.6 22:01:57 22° S 22:05:25 59° WSW 22:10:49 10° NNW visible
01 May 5.3 21:49:27 22° S 21:53:07 76° WSW 21:58:35 10° NNW visible
02 May 5.1 21:36:56 20° SSE 21:40:50 85° ENE 21:46:19 10° NNW visible
02 May 7.7 23:20:13 10° WSW 23:22:07 12° W 23:24:02 10° WNW visible
03 May 5.2 21:24:25 17° SSE 21:28:34 67° ENE 21:33:59 10° N visible
03 May 7.5 23:06:28 10° SW 23:09:40 16° W 23:12:53 10° NW visible
04 May 5.5 21:11:55 15° SE 21:16:20 52° ENE 21:21:36 10° N visible
04 May 7.2 22:53:52 12° SW 22:57:15 20° W 23:01:14 10° NW visible
